Regional Weather Roundup
Issued by NWS

Home | Current Version | Previous Version | Text Only | Print | Product List | Glossary On
Versions: 1 2 3 4 5 6 7 8 9 10 11 12 13 14 15 16 17 18 19 20 21 22 23 24 25 26 27 28 29 30 31 32 33 34 35 36 37 38 39 40 41 42 43 44 45 46 47 48 49 50
548
ASUS43 KTOP 260259
RWRKS

WEATHER ROUNDUP FOR KANSAS
NATIONAL WEATHER SERVICE GOODLAND KS
1000 PM CDT SUN SEP 25 2016

NOTE:  "FAIR" INDICATES FEW OR NO CLOUDS BELOW 12,000 FEET WITH NO
SIGNIFICANT WEATHER AND/OR OBSTRUCTIONS TO VISIBILITY.

KSZ001>006-013>018-027>032-041>047-260400-
NORTHWEST KANSAS

CITY           SKY/WX    TMP DP  RH WIND       PRES   REMARKS
GOODLAND       CLEAR     48  35  60 N5        30.38R
HAYS           CLEAR     52  34  50 N7        30.30R
HILL CITY      CLEAR     47  39  74 N7        30.33R
RUSSELL        CLEAR     52  43  71 NW8       30.28R
$$

KSZ061>065-074>080-084>089-260400-
SOUTHWEST KANSAS

CITY           SKY/WX    TMP DP  RH WIND       PRES   REMARKS
DODGE CITY     CLEAR     53  38  56 N8        30.32R
ELKHART          N/A    N/A N/A N/A MISG        N/A
GARDEN CITY    CLEAR     51  34  52 N9        30.33R
GREAT BEND     CLEAR     57  39  51 N6        30.29R
LIBERAL        CLEAR     55  30  38 N6        30.34R
$$

KSZ066>073-081>083-090>101-260400-
SOUTHEAST KANSAS

CITY           SKY/WX    TMP DP  RH WIND       PRES   REMARKS
CHANUTE        CLOUDY    63  58  83 N3        30.20R
COFFEYVILLE    CLOUDY    62  60  93 CALM      30.21R
HUTCHINSON     PTCLDY    59  47  64 N8        30.26R
MEDICINE LODGE   N/A     59  54  83 N5          N/A
NEWTON         PTCLDY   N/A N/A N/A N7        30.25R
PARSONS        CLOUDY    62  60  93 CALM      30.21R
WICHITA INTL   CLOUDY    62  57  83 NW5       30.24R
WICHITA JABRA  CLOUDY    62  56  80 NW7       30.23R
WICHITA MCCONL CLOUDY    64  55  72 W2        30.24R HAZE
WINFIELD       CLOUDY    61  58  90 N3        30.24R
$$

KSZ007>012-019>026-033>040-048>060-102>105-260400-
NORTHEAST KANSAS

CITY           SKY/WX    TMP DP  RH WIND       PRES   REMARKS
CONCORDIA      CLEAR     57  42  57 NW7       30.26R
EMPORIA        CLOUDY    62  57  83 W5        30.22R
LAWRENCE       CLOUDY    61  59  93 NW5       30.20R
MANHATTAN      CLEAR     60  49  66 CALM      30.23R
OLATHE IND     PTCLDY    62  57  83 W3        30.21R
OLATHE EXE     PTCLDY    62  56  80 CALM      30.20R
SALINA         CLEAR     59  48  67 NW7       30.26R
TOPEKA BILLARD PTCLDY    61  58  90 CALM      30.21R FOG
TOPEKA FORBES  CLOUDY    63  58  83 CALM      30.21R
$$




USA.gov is the U.S. government's official web portal to all federal, state and local government web resources and services.